SCP
0 0 0 0 0 0 0 0 0 0 0 0 0 0 0 0 0 0 0 1 1 1 1 1 1 1 1 1 1 0 0 0 0 0 0 0 0 0 0 0 0 0 0 0 0 0 0 0 0
0 0 0 0 0 0 0 0 0 0 0 0 0 0 0 0 0 0 0 1 1 1 1 1 1 1 1 1 1 0 0 0 0 0 0 0 0 0 0 0 0 0 0 0 0 0 0 0 0
0 0 0 0 0 0 0 0 0 0 0 0 0 0 0 0 0 1 1 1 1 2 1 1 1 1 1 1 1 0 0 0 0 0 0 0 0 0 0 0 0 0 0 0 0 0 0 0 0
0 0 0 0 0 0 0 0 0 0 0 0 0 0 1 1 1 1 1 1 2 2 2 1 1 1 1 1 1 0 0 0 0 0 0 0 0 0 0 0 0 0 0 0 0 0 0 0 0
0 0 0 0 0 0 0 0 0 0 0 0 0 1 1 1 1 1 1 2 2 2 2 1 1 1 1 1 1 0 0 0 0 0 0 0 0 0 0 0 0 0 0 0 0 0 0 0 0
0 0 0 0 0 0 0 -0 0 0 0 0 1 1 1 1 1 1 2 2 2 2 1 1 1 1 1 1 1 0 0 0 0 0 0 0 0 0 0 0 0 0 0 0 0 0 0 0 0
0 0 0 0 0 0 0 -0 0 0 0 0 1 1 1 1 1 2 2 2 2 2 1 1 1 1 1 1 0 0 0 0 0 0 0 0 0 0 0 0 0 0 0 0 0 0 0 0 0
0 0 0 0 0 0 0 0 0 0 0 0 1 1 1 1 2 2 2 2 2 2 1 1 1 1 1 1 0 0 0 0 0 0 0 0 0 0 0 0 0 0 0 0 0 0 0 0 0
0 0 0 0 0 0 0 0 0 0 0 1 1 1 1 1 2 2 2 2 2 1 1 1 1 1 1 0 0 0 0 0 0 0 0 0 0 0 0 0 0 0 0 0 0 0 0 0 0
0 0 0 0 0 0 0 0 0 0 0 1 1 1 1 1 2 2 2 2 1 1 1 1 1 1 1 0 0 0 0 0 0 0 0 0 0 0 0 0 0 0 0 0 0 0 0 0 0
0 0 0 0 0 0 0 0 0 0 0 0 1 1 1 1 1 1 1 1 1 1 1 1 1 1 1 0 0 0 0 0 0 0 0 0 0 0 0 0 0 0 0 0 0 0 0 0 0
0 0 0 0 0 0 0 0 0 0 0 0 0 1 1 1 1 1 1 1 1 1 1 1 1 1 1 0 0 0 0 0 0 0 0 0 0 0 0 0 0 0 0 0 0 0 0 0 0
0 0 0 0 0 0 0 0 0 0 0 0 0 1 1 1 1 1 1 1 1 1 1 1 1 1 1 0 0 0 0 0 0 0 0 0 0 0 0 0 0 0 0 0 0 0 0 0 0
0 0 0 0 0 0 0 0 0 0 0 0 0 0 1 1 1 1 1 1 1 1 1 1 1 1 1 0 0 0 0 0 0 0 0 0 0 0 0 0 0 0 0 0 0 0 0 0 0
0 0 0 0 -0 0 0 0 0 0 0 0 0 0 0 0 0 1 1 1 1 1 1 1 1 1 1 0 0 0 0 0 0 0 0 0 0 0 0 0 0 0 0 0 0 0 0 0 0
0 0 0 0 0 0 0 0 0 0 0 0 0 0 0 0 0 0 0 1 1 1 1 1 1 1 1 1 0 0 0 0 0 0 0 0 0 0 0 0 0 0 0 0 0 0 0 0 0
0 0 0 0 0 0 0 0 0 0 0 0 0 0 0 0 0 0 0 0 1 1 1 1 1 1 1 1 0 0 0 0 0 0 0 0 0 0 0 0 0 0 0 0 0 0 0 0 0
0 0 0 0 0 0 0 0 0 0 0 0 0 0 0 0 0 0 0 0 0 1 1 1 1 1 1 1 1 0 0 0 0 0 0 0 0 0 0 0 0 0 0 0 0 0 0 0 0
0 0 0 0 0 0 0 0 0 0 0 0 0 0 0 0 0 0 0 0 0 0 0 1 1 1 1 1 1 1 0 0 0 0 0 0 0 0 0 0 0 0 0 0 0 0 0 0 0
0 0 0 0 0 0 0 0 0 0 0 -0 0 0 0 0 0 0 0 0 0 0 0 0 1 1 1 1 1 1 1 0 0 0 0 0 0 0 0 0 0 0 0 0 0 0 0 0 0
0 0 0 0 0 0 0 0 0 0 0 -0 -0 0 0 0 0 0 0 0 0 0 0 0 0 0 1 1 1 1 1 0 0 0 0 0 0 0 0 0 0 0 0 0 0 0 0 0 0
0 0 0 0 0 0 0 0 0 0 0 0 0 0 0 0 0 0 0 0 0 0 0 0 0 0 0 1 1 1 1 1 0 0 0 0 0 0 0 0 0 0 0 0 0 0 0 0 0
0 0 0 0 0 0 0 0 0 0 0 0 0 0 0 0 0 0 0 0 0 0 0 0 0 0 0 0 1 1 1 1 0 0 0 0 0 0 0 0 0 0 0 0 0 0 0 0 0
0 0 0 0 0 0 0 0 0 0 0 0 0 0 0 0 0 0 0 0 0 0 0 0 0 0 0 0 0 0 0 0 0 0 0 0 0 0 0 0 0 0 0 0 0 0 0 0 0
0 0 0 0 0 0 0 0 0 0 0 0 0 0 0 0 0 0 0 0 0 0 0 0 0 0 0 0 0 0 0 0 0 0 0 0 0 0 0 0 0 0 0 0 0 0 0 0 0
0 0 0 0 0 0 0 0 0 0 0 0 0 0 0 0 0 0 0 0 0 0 0 0 0 0 0 0 0 0 0 0 0 0 0 0 0 0 0 0 0 0 0 0 0 0 0 0 0
0 0 0 0 0 0 0 0 0 0 0 0 0 0 0 0 0 0 0 0 0 0 0 0 0 0 0 0 0 0 0 0 0 0 0 0 0 0 0 0 0 0 0 0 0 0 0 0 0
0 0 0 0 0 0 0 0 0 0 0 0 0 0 0 0 0 0 0 0 0 0 0 0 0 0 0 0 0 0 0 0 0 0 0 0 0 0 0 0 0 0 0 0 0 0 0 0 0
0 0 0 0 0 0 0 0 0 0 0 0 0 0 0 0 0 0 0 0 0 0 0 0 0 0 0 0 0 0 0 0 0 0 0 0 0 0 0 0 0 0 0 0 0 0 0 0 0
0 0 0 0 0 0 0 0 0 0 0 0 0 0 0 0 0 0 0 0 0 0 0 0 0 0 0 0 0 0 0 0 0 0 0 0 0 0 0 0 0 0 0 0 0 0 0 0 0
Wind_Speed
5 2 1 2 2 4 11 7 4 5 5 4 3 5 6 7 7 5 2 10 15 16 15 18 20 20 19 18 17 17 16 16 16 17 17 17 18 17 17 17 17 17 18 18 18 18 17 17 16
1 0 1 2 6 10 9 7 6 6 5 3 2 2 2 3 1 5 7 10 16 16 14 15 20 20 19 18 18 17 16 16 16 16 16 17 17 17 17 17 17 17 17 18 17 16 15 15 15
2 1 2 3 8 13 8 6 9 6 3 1 2 2 3 3 4 6 7 14 15 14 13 15 20 20 20 19 18 17 16 16 16 16 16 16 17 17 17 17 17 17 16 16 16 15 14 14 14
1 1 2 5 12 11 7 4 5 5 3 2 2 1 1 0 3 5 13 16 16 13 12 15 20 20 19 18 18 17 17 16 16 16 16 16 17 17 17 17 16 16 15 15 15 14 14 13 13
2 2 5 8 12 7 6 5 4 5 4 2 3 2 1 2 4 11 16 16 16 14 11 14 19 20 19 18 18 17 17 17 16 16 16 16 17 17 17 16 16 16 15 15 14 14 14 13 13
1 2 6 10 11 7 7 6 3 3 4 2 2 1 1 2 8 13 15 15 14 14 12 13 18 18 18 18 17 16 16 16 16 16 16 17 17 17 17 16 15 15 15 14 14 13 13 13 12
3 3 6 7 8 8 8 5 5 4 4 4 2 1 1 4 7 12 12 13 12 12 11 10 12 14 16 16 15 15 14 14 15 15 15 15 15 16 16 15 15 14 14 13 13 12 12 11 11
2 1 4 6 7 7 5 3 4 6 5 2 2 3 3 5 9 11 11 11 12 10 10 10 9 10 10 10 13 13 13 13 13 13 12 12 13 13 13 11 12 12 12 12 11 11 10 10 9
3 3 6 7 5 4 2 2 1 2 2 1 0 1 2 7 11 13 11 11 12 11 9 10 9 9 9 8 10 11 11 11 11 11 12 10 6 7 7 8 10 10 10 10 10 9 9 8 7
3 4 6 3 2 2 2 1 1 1 1 1 1 3 1 7 11 14 14 15 15 14 11 9 10 10 9 8 7 6 6 6 6 6 7 5 5 4 6 8 8 9 8 8 9 8 8 6 3
3 4 3 4 4 2 3 2 1 3 3 3 2 0 1 6 8 12 14 14 14 14 12 10 10 10 9 6 6 4 4 5 5 7 6 5 4 4 4 3 4 4 5 4 5 4 3 3 2
2 2 3 3 2 2 3 2 1 1 3 4 4 3 4 6 8 10 13 13 12 13 12 11 10 9 9 7 6 6 5 5 5 6 7 5 4 4 4 3 3 3 2 3 3 2 2 2 2
2 2 3 3 3 2 2 3 2 3 4 1 1 2 5 6 6 7 8 9 10 12 13 12 10 10 9 8 7 7 6 6 6 6 6 6 5 5 4 3 3 3 2 3 3 2 2 2 1
2 2 3 3 1 2 3 4 1 4 2 1 1 1 2 3 3 4 6 8 10 12 12 11 11 10 9 7 7 7 6 6 6 6 6 7 5 5 5 4 3 3 3 3 3 3 2 1 1
1 1 2 2 1 1 1 3 4 4 1 2 2 2 2 2 2 4 6 7 9 10 10 11 12 11 10 9 8 7 6 6 6 6 7 7 6 6 5 5 4 4 3 3 2 2 1 1 1
1 1 1 2 0 0 2 4 4 2 2 3 3 3 2 3 2 3 4 5 6 8 9 10 10 11 11 9 9 7 7 7 6 6 6 8 7 7 6 5 4 4 3 3 3 2 2 1 1
2 0 1 2 1 1 2 3 3 2 2 3 3 3 3 3 3 2 3 4 5 6 8 9 9 10 10 9 7 7 7 7 6 6 6 7 8 7 6 5 4 4 4 3 3 2 2 2 2
1 1 1 1 1 1 2 2 3 2 1 2 2 3 3 3 4 3 3 3 4 6 7 8 8 9 8 7 6 5 5 5 5 6 6 7 7 8 6 5 5 5 4 3 3 3 2 2 2
1 1 1 1 2 1 1 2 3 2 0 1 2 3 3 4 4 3 3 2 3 5 6 8 8 8 7 6 7 7 6 6 5 5 7 8 7 8 7 5 5 5 5 5 5 3 3 2 2
1 1 0 1 2 1 1 3 3 2 2 3 2 2 4 3 2 2 2 2 5 6 6 7 7 7 7 6 6 4 5 5 5 5 6 7 8 8 7 7 6 6 5 5 5 4 3 2 2
3 1 0 0 2 3 2 4 2 2 2 1 1 2 2 3 4 3 2 2 3 5 7 6 7 7 7 6 4 3 3 3 3 4 5 6 7 7 7 7 5 5 5 5 5 5 5 3 2
1 1 1 2 3 2 2 2 4 3 3 2 3 2 2 3 3 3 2 2 2 3 4 5 5 6 6 7 7 8 6 6 6 5 4 4 5 6 6 6 6 6 5 5 5 5 4 4 3
0 1 2 3 2 2 3 1 6 3 2 3 3 2 2 3 3 3 3 2 2 1 2 3 4 4 4 6 7 7 5 4 3 4 5 5 5 5 6 7 7 6 5 5 5 5 5 4 4
1 3 5 4 3 2 1 1 4 2 3 3 3 2 2 3 3 3 2 1 1 1 1 1 3 3 3 4 5 6 7 6 5 6 6 5 4 4 6 6 6 6 5 5 5 5 5 5 4
4 4 4 5 4 2 2 1 5 4 3 3 4 4 3 3 2 3 4 3 1 1 1 1 2 2 3 4 4 6 7 7 7 6 6 5 4 4 6 5 5 4 4 4 4 4 4 4 4
1 3 4 3 1 2 2 2 5 4 5 3 2 2 2 3 3 3 3 3 2 2 1 0 1 2 2 3 3 3 4 4 4 5 5 5 5 5 5 5 5 4 5 4 4 4 3 3 4
2 2 2 4 1 1 3 5 6 3 6 6 5 4 4 4 4 4 4 3 3 2 2 1 0 0 1 2 2 2 2 4 5 6 5 4 4 3 5 5 5 4 4 4 4 3 3 3 3
2 3 3 3 2 1 3 3 4 6 7 7 6 5 4 4 4 4 4 4 3 2 1 1 1 1 1 1 2 1 2 2 3 4 4 4 4 4 5 5 4 4 4 4 3 3 2 3 2
2 2 2 3 2 3 1 4 3 3 4 5 5 4 4 4 5 4 4 3 3 2 2 2 1 0 0 1 1 2 1 1 2 3 4 4 4 4 5 5 5 4 4 3 3 3 3 3 2
1 2 3 2 1 2 1 5 3 1 2 4 5 5 5 5 5 4 4 4 3 3 2 2 1 1 0 1 2 2 2 2 2 3 3 4 5 4 5 5 5 4 4 4 4 4 4 4 4
Wind_Direction
295 309 86 92 154 208 229 224 205 193 201 201 183 170 175 177 172 201 139 144 140 146 151 151 149 146 143 139 136 134 134 132 131 132 132 131 131 130 128 126 124 121 118 116 113 111 108 106 104
265 208 102 156 198 215 229 215 218 212 190 165 180 173 177 223 187 130 139 149 143 145 149 150 149 147 144 141 139 137 137 135 134 134 133 134 132 131 129 127 125 122 119 115 112 111 110 110 108
278 187 174 193 211 215 220 204 217 232 231 168 180 193 187 204 162 157 154 148 142 144 147 150 149 147 145 143 141 140 139 139 138 136 134 134 133 131 129 127 125 122 118 116 115 113 113 113 111
102 130 189 217 225 222 216 207 205 211 235 223 169 210 229 231 168 157 148 147 143 143 145 151 149 148 146 145 144 142 142 140 139 136 135 135 134 131 128 126 124 122 120 118 117 115 114 112 112
98 169 208 221 233 235 231 232 203 203 194 200 168 189 243 344 126 141 149 148 146 144 146 152 149 149 148 148 146 145 143 141 140 139 138 137 134 132 128 128 128 127 124 121 120 119 117 114 113
161 182 212 220 228 239 236 236 223 231 214 201 162 183 243 111 137 148 151 148 148 146 148 153 151 149 149 149 148 147 144 143 142 141 139 137 134 133 133 133 133 133 129 125 122 121 119 117 115
181 205 218 220 223 237 233 216 208 214 228 213 174 147 194 143 150 148 148 144 145 145 148 149 151 150 149 148 149 149 146 145 143 142 138 136 135 137 137 137 137 136 132 128 125 124 121 118 117
172 228 225 218 216 233 243 208 211 209 228 232 148 165 195 161 150 143 141 143 145 148 150 148 147 146 146 147 149 147 145 145 142 137 131 131 135 138 138 137 138 137 133 130 128 127 123 120 119
140 225 229 218 211 227 254 199 256 254 200 254 192 172 250 153 151 145 147 149 153 155 155 151 148 145 142 145 149 145 143 142 137 132 131 127 125 127 130 134 136 136 135 133 131 128 122 112 112
165 217 238 234 234 267 306 226 213 171 203 241 350 13 82 153 162 161 162 164 164 165 163 157 154 150 147 151 142 139 137 133 126 130 129 122 122 124 130 134 136 136 134 132 131 126 116 103 97
190 216 259 275 275 294 310 323 314 157 185 206 195 232 163 168 170 176 169 170 169 165 166 163 160 154 152 148 146 140 136 134 131 134 133 129 123 124 123 128 130 127 125 117 118 105 102 108 112
239 252 260 286 296 291 285 299 349 189 219 223 200 183 182 187 183 187 178 172 169 167 169 167 164 161 157 152 153 149 148 149 150 149 145 142 140 141 144 144 143 138 133 132 125 125 125 121 124
241 272 279 269 280 280 273 265 267 284 274 228 142 157 188 190 198 196 181 176 171 173 172 170 168 167 162 156 159 159 160 162 160 158 158 155 156 159 159 157 157 156 149 150 150 146 146 143 145
219 270 305 289 260 282 257 269 266 284 292 98 129 183 218 208 207 190 183 179 182 179 174 170 172 173 166 165 166 166 166 165 165 169 170 166 164 165 166 167 170 172 168 163 162 163 161 169 175
201 307 314 312 253 262 218 266 243 269 207 166 217 232 257 256 234 211 193 189 188 182 176 176 172 177 174 172 172 171 170 168 173 177 175 175 172 171 170 172 180 184 173 166 157 159 154 182 203
7 43 308 312 227 252 135 253 273 274 158 192 218 228 238 265 263 245 205 191 193 182 179 182 180 178 180 179 176 174 173 174 177 177 179 182 181 176 173 178 188 179 168 167 168 166 174 203 215
34 65 256 311 24 86 159 246 305 11 165 209 225 234 236 270 285 276 231 204 199 190 184 186 184 180 184 181 176 176 174 178 177 177 181 185 184 180 179 185 186 172 169 174 175 170 173 197 219
187 209 224 264 335 102 179 259 311 344 132 211 233 236 240 252 265 264 244 217 201 198 191 190 185 182 181 180 172 171 175 179 175 179 185 183 186 184 181 184 181 171 171 179 179 179 179 189 201
185 155 205 274 331 44 204 277 287 291 327 257 252 243 246 254 265 275 236 206 203 203 198 196 191 185 178 182 181 182 185 181 180 184 185 186 187 185 184 188 180 179 186 189 182 171 178 191 159
72 87 46 17 13 27 341 287 274 280 247 223 229 259 252 260 291 289 266 203 203 206 204 200 199 190 189 193 186 182 173 178 182 183 187 188 186 185 187 186 187 185 185 184 183 174 165 175 164
38 82 32 34 15 26 18 324 307 298 298 299 266 258 278 264 272 282 274 245 211 204 203 204 203 196 196 191 176 161 147 142 168 185 192 190 185 185 183 183 183 184 187 191 190 183 176 182 189
25 327 68 84 73 6 32 327 307 304 317 290 278 280 299 292 286 287 285 281 240 221 192 189 196 200 201 193 186 185 188 188 192 185 185 179 183 187 185 181 182 184 188 187 185 183 182 173 188
110 19 65 66 81 43 23 34 298 340 323 289 276 283 299 294 282 286 289 281 269 225 180 169 177 192 196 194 189 187 190 194 175 164 175 183 181 186 188 187 185 184 186 189 183 182 186 188 189
73 60 53 46 57 33 313 165 294 302 283 301 310 311 299 295 299 302 313 332 346 29 77 128 148 179 182 185 183 183 188 187 172 178 188 190 184 190 195 189 188 185 182 185 187 187 189 194 193
47 73 45 23 23 291 301 223 264 289 298 282 289 299 304 298 308 324 337 348 348 4 46 119 141 186 195 180 188 190 192 185 182 188 194 188 188 198 199 188 186 185 183 180 177 184 193 196 195
63 106 129 145 197 302 334 262 271 301 325 335 329 337 354 340 339 334 335 343 342 354 4 25 143 193 198 184 190 195 188 176 175 183 183 185 194 198 188 180 177 177 173 173 177 184 193 191 201
97 80 144 121 90 3 306 303 310 348 13 16 17 22 18 360 351 350 348 344 342 356 359 327 110 216 219 176 172 191 183 180 182 181 181 176 179 175 168 167 168 167 165 169 173 180 186 187 198
95 130 90 92 97 358 317 310 303 328 346 357 5 8 5 5 356 357 352 346 340 343 6 26 50 188 215 161 166 178 182 192 177 159 164 162 162 155 147 149 150 150 148 148 150 149 148 150 156
64 70 86 99 124 144 296 289 274 282 330 343 348 352 353 354 347 346 339 336 340 357 11 24 18 38 124 152 149 142 139 131 139 148 155 153 143 144 144 146 145 141 136 134 135 136 138 140 134
166 169 147 137 187 158 167 277 315 334 355 359 358 357 356 355 348 342 337 343 353 360 5 8 9 5 326 163 143 142 133 128 134 144 146 141 138 139 137 137 134 131 130 134 141 142 141 145 149